Regional Weather Roundup
Issued by NWS

Home | Current Version | Previous Version | Text Only | Print | Product List | Glossary On
Versions: 1 2 3 4 5 6 7 8 9 10 11 12 13 14 15 16 17 18 19 20 21 22 23 24 25 26 27 28
000
ASUS42 KTBW 271416
RWRFL
FLORIDA REGIONAL WEATHER ROUNDUP
NATIONAL WEATHER SERVICE TAMPA BAY RUSKIN FL
900 AM EST MON FEB 27 2017

NOTE: "FAIR" INDICATES FEW OR NO CLOUDS BELOW 12,000 FEET WITH NO
SIGNIFICANT WEATHER AND/OR OBSTRUCTIONS TO VISIBILITY.

FLZ001>010-012>015-112-114-115-271500-
PANHANDLE FLORIDA

CITY           SKY/WX    TMP DP  RH WIND       PRES   REMARKS
PENSACOLA      SUNNY     63  57  81 SE13      30.15F
PENSACOLA NAS  MOSUNNY   69  62  78 SE15      30.14F
MILTON NAS     MOSUNNY   58  53  84 SE10      30.14
CRESTVIEW      SUNNY     56  47  71 SE6       30.20F
DUKE FIELD     FAIR      59  49  69 SE6       30.18S
VALPARAISO     PTSUNNY   58  49  72 E8        30.19R
MARY ESTHER    PTSUNNY   60  50  71 E8        30.17S
PANAMA CITY    PTSUNNY   59  51  75 E7        30.20R
TYNDALL AFB    MOSUNNY   61  54  77 E7        30.21R
APALACHICOLA   PTSUNNY   68  62  81 SE9       30.22R

STATION/POSITION SKY/WX   TEMP    WIND        PRES    WAVE   SWELL
                          AIR SEA DIR/SP/G            HT/PER HT/PER
                          (F)     (DEG/KT/KT) (MB)    (FT/S) (FT/S)
30.1N   87.6W              70 68  150/ 14/ 16 1020.5R   4/ 6
28.8N   86.0W              72 71              1021.7R   6/ 7
PANAMA CITY BEAC           60      90/ 10/ 13 1022.8R
TOWER C                    66     140/ 17/ 20 1023.1R
28.5N   84.5W              70 69  140/ 17/ 21 1021.7R   5/ 6

$$
FLZ011-016>038-118-127-128-134-139-239-271500-
NORTH FLORIDA

CITY           SKY/WX    TMP DP  RH WIND       PRES   REMARKS
MARIANNA       MOSUNNY   59  46  62 VRB5      30.22S
TALLAHASSEE    SUNNY     59  47  64 E10       30.25R
PERRY          SUNNY     60  49  66 E3        30.26R
CROSS CITY     SUNNY     61  52  72 SE7       30.24S
LAKE CITY      FAIR      61  54  77 SE7       30.26R
GAINESVILLE    SUNNY     64  55  72 SE10      30.25S
WILLISTON      SUNNY     66  57  72 E6        30.24F
PALATKA        FAIR      64  59  82 SE7       30.26F
MAYPORT NAS    SUNNY     70  58  65 SE13      30.26S
JACKSONVILLE   SUNNY     67  58  72 E3        30.26R
JAX NAS        SUNNY     66  57  72 SE8       30.27R
FERNANDINA BEA FAIR      72  61  68 E10       30.26R
ST AUGUSTINE   SUNNY     72  60  66 SE16G23   30.27S
PALM COAST     SUNNY     72  61  68 SE12      30.27R

STATION/POSITION SKY/WX   TEMP    WIND        PRES    WAVE   SWELL
                          AIR SEA DIR/SP/G            HT/PER HT/PER
                          (F)     (DEG/KT/KT) (MB)    (FT/S) (FT/S)
SHELL POINT      NOT AVBL
KEATON BEACH               61      80/ 11/ 13 1023.7R
CEDAR KEY                  58      80/ 10/ 11 1023.9R
FERNANDINA                 69 66  110/  5/ 10 1025.4R
30.7N   81.3W                 64                N/A     3/ 9
MAYPORT                    69 65  120/  8/ 12 1025.1R
31.4N   80.9W              65 62  120/ 12/ 14 1025.0    2/ 9   2/ 9
ST AUGUSTINE               68 65  130/ 14/ 15 1025.6F

$$
FLZ040-043>046-052-053-057-058-063-144-271500-
INTERIOR CENTRAL FLORIDA

CITY           SKY/WX    TMP DP  RH WIND       PRES   REMARKS
OCALA          SUNNY     66  54  63 SE8       30.24S
THE VILLAGES     N/A     70  63  78 MISG      30.16R
LEESBURG       SUNNY     71  59  65 SE10      30.26R
SANFORD        SUNNY     70  61  73 E8        30.26R
ORLANDO EXEC   SUNNY     70  61  73 E8        30.25R
ORLANDO INTL   MOSUNNY   70  60  70 E6        30.25R
WINTER HAVEN   MOSUNNY   70  60  70 E9        30.25R
LAKELAND       SUNNY     70  63  78 E9        30.24R
OKEECHOBEE     MOSUNNY   73  68  83 E9        30.24R

$$
FLZ041-047-054-059-064-141-147-271500-
EAST CENTRAL FLORIDA

CITY           SKY/WX    TMP DP  RH WIND       PRES   REMARKS
ORMOND BEACH   SUNNY     72  63  73 SE12G17   30.27R
DAYTONA BEACH  SUNNY     73  61  65 E10G20    30.27R
DELAND         SUNNY     68  61  77 E8        30.26R
NEW SMYRNA BEA SUNNY     73  63  68 SE14G22   30.26R
JFK SPACE CTR  CLOUDY    74  65  73 E8        30.25R
TITUSVILLE     MOSUNNY   73  66  78 E7        30.26R
CAPE CANAVERAL MOSUNNY   77  66  69 SE12      30.24R
PATRICK AFB    SUNNY     76  67  75 SE15      30.24R
MELBOURNE      MOSUNNY   75  67  76 E16G24    30.24R
VERO BEACH     MOSUNNY   77  68  73 SE14      30.25R
FT PIERCE      MOSUNNY   77  68  73 SE18G26   30.24R
STUART         MOSUNNY   81  66  61 SE14G21   30.25R

STATION/POSITION SKY/WX   TEMP    WIND        PRES    WAVE   SWELL
                          AIR SEA DIR/SP/G            HT/PER HT/PER
                          (F)     (DEG/KT/KT) (MB)    (FT/S) (FT/S)
TRIDENT PIER               75 71   90/  6/  9 1025.3R
28.4N   80.5W                 71                N/A     3/ 6
27.5N   80.2W                 72                N/A     5/ 6

$$
FLZ050-056-061-142-242-148-248-149-249-151-251-155-255-
160-260-271500-
WEST CENTRAL FLORIDA

CITY           SKY/WX    TMP DP  RH WIND       PRES   REMARKS
CRYSTAL RIVER  FAIR      68  57  68 SE6       30.24R
INVERNESS      FAIR      64  59  82 E3        30.26R
BROOKSVILLE    SUNNY     70  60  70 E8        30.24R
CLEARWATER AIR FAIR      68  59  73 E10       30.22R
ST PETE CLEARW SUNNY     70  60  70 E10       30.22R
TAMPA INTL     SUNNY     70  59  68 E8        30.23R
TAMPA EXEC     SUNNY     68  57  68 CALM      30.24R
PLANT CITY     SUNNY     72  63  73 SE9       30.25S
MACDILL AFB    SUNNY     71  64  79 E10       30.22R
PETER O KNIGHT PTSUNNY   73  63  68 E9        30.23R
ST PETERSBURG  SUNNY     70  62  76 SE10      30.21R
SARASOTA       SUNNY     72  61  68 E14       30.20R
VENICE         FAIR      73  64  73 E14G22    30.21R

STATION/POSITION SKY/WX   TEMP    WIND        PRES    WAVE   SWELL
                          AIR SEA DIR/SP/G            HT/PER HT/PER
                          (F)     (DEG/KT/KT) (MB)    (FT/S) (FT/S)
27.3N   84.2W                 72                N/A     6/ 6
CLEARWATER BEACH           69     110/ 11/ 16 1023.3R
MIDDLE TAMPA BAY           71     140/ 16/ 20 1023.1R
VENICE                     72 69  100/ 11/ 13 1022.4R

$$
FLZ066-069-070-075>078-162-262-165-265-271500-
SOUTHWEST FLORIDA AND KEYS

CITY           SKY/WX    TMP DP  RH WIND       PRES   REMARKS
PUNTA GORDA    SUNNY     71  63  75 E10       30.24R
FT MYERS       SUNNY     74  67  78 E10       30.21R
SOUTHWEST INTL SUNNY     74  66  76 E14       30.22R
NAPLES         SUNNY     74  67  78 E10       30.21R
MARCO ISLAND   SUNNY     72  66  83 E9        30.22R
MARATHON       SUNNY     80  70  71 E12G18    30.19R
KEY WEST NAS   MOSUNNY   78  69  73 E16       30.19R
KEY WEST INTL  MOSUNNY   78  70  76 E15       30.19R

STATION/POSITION SKY/WX   TEMP    WIND        PRES    WAVE   SWELL
                          AIR SEA DIR/SP/G            HT/PER HT/PER
                          (F)     (DEG/KT/KT) (MB)    (FT/S) (FT/S)
NAPLES                        72              1022.9R
26.0N   85.6W              75 74  110/ 17/ 21 1020.5R   5/ 6
DRY TORTUGAS               75     100/ 13/ 14 1021.8R
SAND KEY                   77     140/ 18/ 21 1022.3R
LONG KEY                   76 75  100/ 15/ 17 1022.3R
MOLASSES REEF              76 75  120/ 19/ 21 1022.4R

$$
FLZ067-068-071>074-168-172>174-271500-
SOUTHEAST FLORIDA

CITY           SKY/WX    TMP DP  RH WIND       PRES   REMARKS
W PALM BEACH   MOSUNNY   77  65  66 E18       30.24R
BOCA RATON     MOSUNNY   79  66  65 SE12G21   30.24R
FT LAUDER-EXEC MOSUNNY   80  63  55 E16       30.23R
FT LAUDERDALE  MOSUNNY   79  66  64 SE17      30.23R
POMPANO BEACH  MOSUNNY   79  66  64 SE15      30.24R
PEMBROKE PINES MOSUNNY   79  64  60 E14       30.25R
OPA LOCKA      MOSUNNY   79  65  62 SE16G23   30.24R
MIAMI          MOSUNNY   78  65  63 E17       30.23R
WEST KENDALL   MOSUNNY   80  66  62 E10G22    30.23R
HOMESTEAD      MOSUNNY   78  70  76 E14       30.22R

STATION/POSITION SKY/WX   TEMP    WIND        PRES    WAVE   SWELL
                          AIR SEA DIR/SP/G            HT/PER HT/PER
                          (F)     (DEG/KT/KT) (MB)    (FT/S) (FT/S)
PORT EVERGLADES            77     120/  4/ 10 1023.5R
VIRGINIA KEY               76     100/ 12/ 15 1024.2R
LAKE WORTH                        110/ 18/ 20   N/A
FOWEY ROCKS                76 76  100/ 17/ 19 1023.3R
SETTLEMENT POINT           74      90/ 16/ 19 1024.8R

$$





USA.gov is the U.S. government's official web portal to all federal, state and local government web resources and services.